[[{"header":{"parameterUnit":"m.s-1","parameterCategory":2,"la1":30.2992,"la2":30.254,"lo1":-89.0895,"lo2":-89.0443,"dy":0.0025,"dx":0.0025,"nx":19,"ny":19,"refTime":"2026-03-13T09:00:00:Z","depth":"0","parameterNumber":2,"parameterNumberName":"U-component_of_CURRENTS"},"data":[0,0,0,0.2069,0.207,0.2127,0.2127,0.2177,0.2178,0,0,0,0,0,0,0,0,0,0,0,0.2042,0.2042,0.2069,0.207,0.2127,0.2127,0.2177,0.2178,0,0,0,0,0,0,0,0,0,0,0,0.2042,0.2042,0.2043,0.2071,0.2126,0.2127,0.2177,0.2138,0,0,0,0,0,0,0,0,0,0,0.2085,0.2061,0.2042,0.2043,0.2071,0.2126,0.2127,0.2136,0.214,0.2149,0,0.2161,0,0.2179,0.2182,0.2182,0,0,0,0.2061,0.2058,0.2082,0.2043,0.2072,0.2126,0.2098,0.2138,0.2143,0.2155,0.2162,0.2165,0.218,0.2182,0.2182,0.2257,0.2258,0,0,0.2058,0.2043,0.2079,0.2085,0.2091,0.2097,0.21,0.2141,0.2143,0.2163,0.2166,0.218,0.2183,0.2183,0.2257,0.2258,0,0,0,0.2055,0.2041,0.2064,0.2082,0.2099,0.2099,0.2103,0.2141,0.2151,0.2167,0.2181,0.2183,0.2184,0.2257,0.2257,0.2287,0,0,0,0.2053,0.2041,0.2062,0.2053,0.2098,0.2123,0.2101,0.2148,0.2154,0.2181,0.2183,0.2184,0.2256,0.2257,0.2286,0.2296,0,0,0,0.2039,0.2039,0.2049,0.2052,0.2083,0.2123,0.2135,0.2149,0.2163,0.2182,0.2184,0.2256,0.2257,0.2284,0.2294,0.2366,0,0,0,0.2017,0.2026,0.2048,0.2068,0.2083,0.2131,0.2135,0.2164,0.2181,0.2183,0.2256,0.2257,0.2284,0.2292,0.2363,0.2385,0.2398,0,0,0.2015,0.2025,0.2039,0.2061,0.2102,0.2122,0.2173,0.2193,0.2199,0.2238,0.224,0.2286,0.2294,0.2365,0.2439,0.245,0,0,0,0.203,0.2038,0.2056,0.2087,0.2128,0.2174,0.2201,0.2224,0.2263,0.2217,0.2297,0.2301,0.2345,0.2353,0.2363,0.2393,0.2262,0.2261,0.2261,0.1994,0.203,0.2054,0.2104,0.214,0.2211,0.2254,0.2291,0.2291,0.2317,0.2334,0.2417,0.2425,0.2433,0.2463,0.2344,0.2344,0.2344,0.2344,0.1984,0.1995,0.2049,0.2081,0.2147,0.2194,0.2299,0.2326,0.2414,0.2378,0.2421,0.2393,0.2445,0.2474,0.2347,0.2346,0.2346,0.2346,0.2346,0.1946,0.1957,0.1983,0.2036,0.2099,0.2186,0.2288,0.2376,0.2434,0.2482,0.252,0.2519,0.2541,0.2515,0.2516,0.2516,0.2516,0.2517,0.2517,0.1887,0.192,0.1929,0.1994,0.2024,0.2126,0.2291,0.238,0.2515,0.2562,0.2562,0.2577,0.247,0.2459,0.2523,0.2521,0.2521,0.252,0.252,0.183,0.1846,0.186,0.1882,0.1966,0.2031,0.2214,0.2423,0.255,0.2618,0.2702,0.262,0.262,0.2612,0.2605,0.2703,0.2703,0.2703,0.2703,0.1777,0.1792,0.1792,0.1809,0.1873,0.198,0.2094,0.2313,0.2606,0.2733,0.2795,0.2751,0.2743,0.2747,0.2736,0.273,0.2858,0.2858,0.2858,0.173,0.1748,0.172,0.175,0.181,0.1903,0.197,0.216,0.2618,0.2867,0.2838,0.2831,0.2766,0.2749,0.2749,0.2731,0.2717,0,0]},{"header":{"parameterUnit":"m.s-1","parameterCategory":2,"la1":30.2992,"la2":30.254,"lo1":-89.0895,"lo2":-89.0443,"dy":0.0025,"dx":0.0025,"nx":19,"ny":19,"refTime":"2026-03-13T09:00:00:Z","depth":"0","parameterNumber":3,"parameterNumberName":"V-component_of_CURRENTS"},"data":[0,0,0,0.0141,0.014,0.0088,0.0088,-0.0004,-0.0004,0,0,0,0,0,0,0,0,0,0,0,0.0162,0.0162,0.0141,0.014,0.0088,0.0088,-0.0004,-0.0004,0,0,0,0,0,0,0,0,0,0,0,0.0162,0.0162,0.0162,0.014,0.0089,0.0088,-0.0003,0.004,0,0,0,0,0,0,0,0,0,0,0.0092,0.0122,0.0162,0.0162,0.014,0.0089,0.0088,0.0042,0.0037,0.0016,0,0.0017,0,0.0007,-0.001,-0.0011,0,0,0,0.013,0.0126,0.011,0.0162,0.014,0.0089,0.0109,0.0039,0.0034,0.0009,0.0016,0.0012,0.0005,-0.0011,-0.0011,-0.0033,-0.0032,0,0,0.0133,0.015,0.0115,0.0107,0.0137,0.0111,0.0107,0.0036,0.0035,0.0016,0.001,0.0004,-0.0011,-0.0012,-0.0033,-0.0033,0,0,0,0.0148,0.0152,0.0138,0.0111,0.0105,0.0109,0.0106,0.0039,0.0034,0.0009,0.0003,-0.0012,-0.0013,-0.0034,-0.0033,0.0061,0,0,0,0.0149,0.0161,0.014,0.0149,0.0107,0.0076,0.011,0.0039,0.0031,0.0003,-0.0012,-0.0014,-0.0034,-0.0033,0.0057,0.012,0,0,0,0.0162,0.0163,0.016,0.015,0.0132,0.0077,0.0067,0.0037,0.0027,-0.0011,-0.0014,-0.0034,-0.0034,0.0054,0.0114,0.016,0,0,0,0.0176,0.02,0.0161,0.0185,0.0132,0.0133,0.0068,0.0054,0.003,-0.0012,-0.0034,-0.0033,0.0053,0.011,0.0156,0.0247,0.0272,0,0,0.0218,0.0205,0.0221,0.0185,0.0211,0.0138,0.0159,0.0094,0.0036,-0.0016,-0.0016,0.0058,0.0114,0.0159,0.0303,0.0327,0,0,0,0.0243,0.0257,0.0258,0.026,0.0238,0.0229,0.0161,0.0128,0.0084,0.0027,0.0052,0.0084,0.0109,0.0156,0.0175,0.0062,-0.0029,-0.0029,-0.0029,0.032,0.031,0.0347,0.0335,0.0331,0.0287,0.0274,0.0215,0.0143,0.0138,0.0155,0.0249,0.0299,0.0314,0.0196,0.0135,0.0136,0.0136,0.0136,0.04,0.0426,0.0417,0.0446,0.0426,0.0427,0.0375,0.0328,0.0309,0.0233,0.0252,0.0246,0.0341,0.0207,0.0142,0.0141,0.014,0.014,0.0139,0.045,0.0466,0.0476,0.0521,0.0551,0.0519,0.0573,0.0504,0.0409,0.0432,0.0455,0.0454,0.0341,0.0432,0.0432,0.0433,0.0433,0.0434,0.0434,0.0496,0.0513,0.0564,0.0606,0.0644,0.0701,0.0689,0.0692,0.0651,0.0583,0.0583,0.037,0.0339,0.0333,0.0442,0.044,0.0439,0.0438,0.0438,0.0566,0.0566,0.0654,0.0702,0.0817,0.0952,0.0924,0.0957,0.0914,0.0918,0.0611,0.065,0.0631,0.0615,0.0614,0.079,0.079,0.079,0.079,0.0611,0.0618,0.0745,0.0848,0.0982,0.1073,0.1245,0.1234,0.0989,0.0833,0.0689,0.0619,0.061,0.0581,0.0566,0.0561,0.0719,0.0718,0.0718,0.0667,0.07,0.0804,0.0902,0.1057,0.1228,0.1417,0.1475,0.1055,0.0696,0.0514,0.0517,0.0388,0.0383,0.0311,0.0299,0.028,0,0]}],[{"header":{"parameterUnit":"m.s-1","parameterCategory":2,"la1":30.2992,"la2":30.254,"lo1":-89.0895,"lo2":-89.0443,"dy":0.0025,"dx":0.0025,"nx":19,"ny":19,"refTime":"2026-03-13T09:00:00:Z","depth":"2","parameterNumber":2,"parameterNumberName":"U-component_of_CURRENTS"},"data":[0,0,0,0.1864,0.1866,0.1941,0.1941,0.2007,0.2008,0,0,0,0,0,0,0,0,0,0,0,0.1833,0.1834,0.1864,0.1866,0.1941,0.1941,0.2007,0.2008,0,0,0,0,0,0,0,0,0,0,0,0.1833,0.1834,0.1834,0.1866,0.1941,0.1941,0.2007,0.1956,0,0,0,0,0,0,0,0,0,0,0.1886,0.1861,0.1833,0.1834,0.1867,0.1941,0.1941,0.1954,0.1959,0.1966,0,0.1982,0,0.2001,0.2012,0.2012,0,0,0,0.186,0.1856,0.1883,0.1834,0.1867,0.1941,0.1905,0.1957,0.1963,0.1973,0.1983,0.1986,0.2002,0.2012,0.2013,0.2093,0.2093,0,0,0.1856,0.184,0.1879,0.1887,0.1892,0.1903,0.1908,0.1961,0.1965,0.1983,0.1988,0.2003,0.2013,0.2013,0.2093,0.2093,0,0,0,0.1848,0.1837,0.1863,0.1883,0.1903,0.1905,0.1911,0.1962,0.1973,0.1989,0.2004,0.2013,0.2014,0.2092,0.2093,0.2122,0,0,0,0.1845,0.1833,0.1861,0.1851,0.1902,0.1937,0.1911,0.1969,0.1976,0.2004,0.2013,0.2014,0.2092,0.2093,0.212,0.2132,0,0,0,0.1829,0.1831,0.1843,0.185,0.1887,0.1937,0.195,0.1971,0.1986,0.2012,0.2015,0.2091,0.2092,0.2119,0.2129,0.219,0,0,0,0.1806,0.182,0.1843,0.1868,0.1887,0.1942,0.195,0.199,0.2013,0.2013,0.2092,0.2093,0.2118,0.2128,0.2187,0.2173,0.2183,0,0,0.1808,0.1819,0.1836,0.1859,0.1906,0.1931,0.1988,0.2019,0.203,0.207,0.2072,0.2121,0.2129,0.2189,0.2228,0.2236,0,0,0,0.1827,0.1838,0.1857,0.1893,0.1938,0.1987,0.2024,0.2049,0.2096,0.2051,0.2132,0.2137,0.2174,0.2161,0.2167,0.2097,0.2097,0.2097,0.2097,0.1796,0.1833,0.1862,0.1914,0.1955,0.2029,0.2075,0.2117,0.2121,0.215,0.2169,0.2244,0.223,0.2235,0.2179,0.2179,0.2179,0.2179,0.2179,0.1792,0.1805,0.1863,0.1901,0.1968,0.2021,0.2124,0.2153,0.224,0.2212,0.2247,0.2201,0.2243,0.2182,0.2181,0.2181,0.2181,0.218,0.218,0.1756,0.1767,0.1801,0.1861,0.193,0.2019,0.2118,0.2205,0.2262,0.2305,0.2314,0.2313,0.227,0.2334,0.2334,0.2334,0.2335,0.2335,0.2335,0.1697,0.1734,0.1751,0.1822,0.1859,0.1963,0.2123,0.2206,0.2318,0.2352,0.2352,0.2297,0.2292,0.228,0.234,0.2339,0.2338,0.2338,0.2338,0.1643,0.166,0.1684,0.1713,0.1807,0.1864,0.204,0.2216,0.233,0.2378,0.2389,0.2386,0.2382,0.2376,0.2366,0.2445,0.2445,0.2445,0.2445,0.1591,0.1608,0.162,0.1646,0.1712,0.1814,0.1893,0.2041,0.2235,0.2296,0.2302,0.2238,0.2238,0.2221,0.2218,0.2203,0.224,0.224,0.2239,0.155,0.1568,0.1551,0.159,0.165,0.1735,0.1754,0.1802,0.2013,0.2225,0.2199,0.2445,0.2364,0.2359,0.2342,0.2335,0.2314,0,0]},{"header":{"parameterUnit":"m.s-1","parameterCategory":2,"la1":30.2992,"la2":30.254,"lo1":-89.0895,"lo2":-89.0443,"dy":0.0025,"dx":0.0025,"nx":19,"ny":19,"refTime":"2026-03-13T09:00:00:Z","depth":"2","parameterNumber":3,"parameterNumberName":"V-component_of_CURRENTS"},"data":[0,0,0,-0.001,-0.001,-0.0054,-0.0054,-0.0137,-0.0138,0,0,0,0,0,0,0,0,0,0,0,0.0007,0.0007,-0.001,-0.001,-0.0054,-0.0054,-0.0137,-0.0138,0,0,0,0,0,0,0,0,0,0,0,0.0007,0.0007,0.0007,-0.0011,-0.0054,-0.0054,-0.0137,-0.0099,0,0,0,0,0,0,0,0,0,0,-0.0054,-0.0029,0.0007,0.0007,-0.0011,-0.0054,-0.0055,-0.0097,-0.0102,-0.0122,0,-0.012,0,-0.0129,-0.0143,-0.0143,0,0,0,-0.002,-0.0026,-0.0038,0.0007,-0.0011,-0.0054,-0.0037,-0.01,-0.0104,-0.0128,-0.0121,-0.0125,-0.013,-0.0143,-0.0144,-0.0162,-0.0162,0,0,-0.0017,-0.0004,-0.0034,-0.0041,-0.0013,-0.0036,-0.0038,-0.0102,-0.0103,-0.0122,-0.0126,-0.0131,-0.0144,-0.0144,-0.0162,-0.0162,0,0,0,-0.0004,-0.0002,-0.0013,-0.0037,-0.0042,-0.0037,-0.004,-0.0101,-0.0104,-0.0127,-0.0132,-0.0144,-0.0145,-0.0163,-0.0162,-0.0077,0,0,0,-0.0003,0.0006,-0.0011,-0.0004,-0.004,-0.0068,-0.0037,-0.01,-0.0107,-0.0132,-0.0144,-0.0146,-0.0163,-0.0162,-0.008,-0.0022,0,0,0,0.0008,0.0007,0.0005,-0.0003,-0.0018,-0.0067,-0.0074,-0.0101,-0.011,-0.0143,-0.0146,-0.0163,-0.0163,-0.0083,-0.0028,0.0003,0,0,0,0.0018,0.0039,0.0006,0.0029,-0.0018,-0.0014,-0.0074,-0.0084,-0.0105,-0.0145,-0.0163,-0.0162,-0.0084,-0.0032,-0.0001,0.0053,0.0073,0,0,0.0055,0.0044,0.0059,0.0028,0.0055,-0.001,0.0011,-0.0047,-0.01,-0.0147,-0.0147,-0.0079,-0.0029,0.0002,0.0106,0.0125,0,0,0,0.0078,0.0092,0.0093,0.0098,0.0081,0.0075,0.0014,-0.0015,-0.0055,-0.0108,-0.0084,-0.0055,-0.0038,-0.0014,0.0001,-0.0158,-0.0158,-0.0158,-0.0158,0.0142,0.0138,0.0173,0.0168,0.0167,0.0129,0.0118,0.0064,-0.0001,-0.0004,0.001,0.0089,0.0117,0.0129,-0.0007,-0.0006,-0.0006,-0.0006,-0.0006,0.0215,0.024,0.0238,0.0268,0.0254,0.0258,0.0211,0.0168,0.0147,0.0083,0.0093,0.0071,0.015,0.0001,-0.0,-0.0001,-0.0002,-0.0002,-0.0003,0.0258,0.0274,0.0287,0.0336,0.0365,0.0341,0.0388,0.0326,0.0237,0.0254,0.0249,0.0248,0.0146,0.0249,0.0249,0.0249,0.025,0.025,0.025,0.0295,0.0316,0.0365,0.0409,0.0448,0.0501,0.049,0.0486,0.0432,0.0363,0.0362,0.0175,0.0167,0.016,0.0257,0.0255,0.0255,0.0254,0.0254,0.0352,0.0357,0.0441,0.0487,0.0596,0.0707,0.0686,0.0687,0.0642,0.0625,0.041,0.0404,0.0381,0.0368,0.0365,0.051,0.051,0.051,0.051,0.0387,0.0397,0.0515,0.0611,0.0732,0.0806,0.0927,0.0878,0.0724,0.0604,0.06,0.0555,0.0543,0.0524,0.0508,0.0505,0.0687,0.0687,0.0687,0.0431,0.0464,0.0557,0.0652,0.0791,0.0929,0.1048,0.1014,0.0782,0.0691,0.0603,0.0527,0.0446,0.0433,0.0386,0.0367,0.0356,0,0]}],[{"header":{"parameterUnit":"m.s-1","parameterCategory":2,"la1":30.2992,"la2":30.254,"lo1":-89.0895,"lo2":-89.0443,"dy":0.0025,"dx":0.0025,"nx":19,"ny":19,"refTime":"2026-03-13T09:00:00:Z","depth":"4","parameterNumber":2,"parameterNumberName":"U-component_of_CURRENTS"},"data":[0,0,0,0.127,0.1273,0.1428,0.1429,0.1547,0.1547,0,0,0,0,0,0,0,0,0,0,0,0.122,0.1222,0.1269,0.1273,0.1428,0.1429,0.1546,0.1547,0,0,0,0,0,0,0,0,0,0,0,0.122,0.1221,0.1223,0.1274,0.1428,0.1429,0.1546,0.1449,0,0,0,0,0,0,0,0,0,0,0.1309,0.1276,0.1221,0.1223,0.1275,0.1428,0.1429,0.1445,0.1455,0.1453,0,0.1488,0,0.1518,0.1553,0.1554,0,0,0,0.1273,0.1268,0.1308,0.1223,0.1276,0.1428,0.1358,0.1452,0.1462,0.1466,0.149,0.1495,0.152,0.1554,0.1554,0.1658,0.1658,0,0,0.1265,0.1247,0.1301,0.1316,0.1329,0.1353,0.1363,0.1459,0.1474,0.1491,0.1498,0.1522,0.1555,0.1555,0.1658,0.1658,0,0,0,0.124,0.1241,0.1281,0.131,0.1344,0.1358,0.1369,0.147,0.1484,0.15,0.1523,0.1555,0.1556,0.1657,0.1658,0.1692,0,0,0,0.1235,0.1227,0.1277,0.1268,0.1343,0.142,0.1378,0.1478,0.149,0.1522,0.1555,0.1557,0.1656,0.1657,0.169,0.1699,0,0,0,0.1211,0.1224,0.1246,0.1267,0.1334,0.142,0.144,0.1482,0.1503,0.1554,0.1557,0.1656,0.1657,0.1688,0.1697,0.1747,0,0,0,0.1181,0.1212,0.1246,0.1293,0.1332,0.1418,0.144,0.1514,0.1559,0.1556,0.1657,0.1658,0.1688,0.1695,0.1745,0.154,0,0,0,0.1194,0.1213,0.124,0.1274,0.1345,0.1396,0.1478,0.1549,0.1572,0.1618,0.1621,0.1691,0.1696,0.1747,0.1606,0,0,0,0,0.1227,0.1247,0.1275,0.1333,0.1398,0.1471,0.1543,0.1579,0.1655,0.1606,0.1703,0.1706,0.1737,0.1611,0.1663,0.1663,0.1663,0.1663,0.1662,0.1206,0.1251,0.1299,0.1366,0.1428,0.1532,0.1596,0.166,0.1677,0.172,0.1743,0.1817,0.1685,0.1757,0.1757,0.1757,0.1757,0.1758,0.1758,0.1211,0.1232,0.1311,0.1374,0.1461,0.1542,0.1659,0.1702,0.1802,0.1787,0.1816,0.1666,0.1761,0.1761,0.176,0.176,0.1759,0.1759,0.1759,0.1175,0.1189,0.125,0.1345,0.1446,0.1559,0.166,0.1761,0.183,0.1873,0.1762,0.185,0.1838,0.1904,0.1904,0.1905,0.1905,0.1905,0.1905,0.1101,0.116,0.1207,0.1316,0.1381,0.1503,0.1676,0.1747,0.1849,0.1781,0.1898,0.1866,0.1861,0.1847,0.191,0.1909,0.1908,0.1908,0.1908,0.1039,0.1076,0.1133,0.1194,0.1332,0.1402,0.1591,0.1682,0.1743,0.1739,0.1735,0.1742,0.1714,0.1714,0.1693,0.1712,0.171,0.1707,0,0.0981,0.1008,0.107,0.1133,0.1206,0.1337,0.138,0.1492,0.1587,0.1527,0.1744,0.1735,0.1739,0.1704,0.17,0.1672,0,0,0,0.0939,0.0969,0.0987,0.1067,0.1133,0.124,0.1385,0.1374,0.1566,0.1575,0.1647,0.1663,0.1821,0.1922,0.1898,0.1892,0.1868,0,0]},{"header":{"parameterUnit":"m.s-1","parameterCategory":2,"la1":30.2992,"la2":30.254,"lo1":-89.0895,"lo2":-89.0443,"dy":0.0025,"dx":0.0025,"nx":19,"ny":19,"refTime":"2026-03-13T09:00:00:Z","depth":"4","parameterNumber":3,"parameterNumberName":"V-component_of_CURRENTS"},"data":[0,0,0,-0.0003,-0.0004,-0.0042,-0.0042,-0.011,-0.0111,0,0,0,0,0,0,0,0,0,0,0,0.001,0.001,-0.0003,-0.0004,-0.0042,-0.0043,-0.011,-0.0111,0,0,0,0,0,0,0,0,0,0,0,0.0011,0.001,0.001,-0.0004,-0.0042,-0.0043,-0.011,-0.0078,0,0,0,0,0,0,0,0,0,0,-0.004,-0.002,0.001,0.001,-0.0004,-0.0042,-0.0043,-0.0077,-0.008,-0.0096,0,-0.0097,0,-0.0103,-0.0115,-0.0116,0,0,0,-0.0011,-0.0017,-0.0027,0.001,-0.0005,-0.0042,-0.0027,-0.0079,-0.0083,-0.0101,-0.0098,-0.01,-0.0104,-0.0116,-0.0116,-0.0133,-0.0132,0,0,-0.0009,0.0001,-0.0024,-0.003,-0.0008,-0.0026,-0.0028,-0.0081,-0.0083,-0.0098,-0.0102,-0.0105,-0.0116,-0.0117,-0.0133,-0.0133,0,0,0,0.0002,0.0002,-0.0007,-0.0027,-0.0031,-0.0027,-0.0029,-0.0081,-0.0083,-0.0102,-0.0106,-0.0117,-0.0117,-0.0133,-0.0133,-0.0066,0,0,0,0.0003,0.0009,-0.0005,-0.0,-0.003,-0.0053,-0.0028,-0.008,-0.0086,-0.0106,-0.0117,-0.0118,-0.0134,-0.0133,-0.0069,-0.0024,0,0,0,0.0011,0.001,0.0008,0.0,-0.0013,-0.0053,-0.0059,-0.0081,-0.0088,-0.0116,-0.0118,-0.0134,-0.0133,-0.0071,-0.0028,-0.0013,0,0,0,0.0019,0.0032,0.0008,0.0023,-0.0012,-0.0011,-0.0058,-0.0068,-0.0086,-0.0117,-0.0134,-0.0133,-0.0072,-0.0031,-0.0015,0.0014,0,0,0,0.0043,0.0035,0.0045,0.0023,0.0043,-0.0007,0.0008,-0.004,-0.0082,-0.012,-0.012,-0.0068,-0.0028,-0.0014,0.0055,0,0,0,0,0.0058,0.0068,0.0069,0.0073,0.0061,0.0057,0.0009,-0.0015,-0.0048,-0.0089,-0.0072,-0.0049,-0.0042,-0.0033,-0.0129,-0.0129,-0.0129,-0.013,-0.013,0.0099,0.0099,0.0126,0.0126,0.0126,0.0097,0.0088,0.0045,-0.0006,-0.0009,0.0001,0.0057,0.0069,-0.0013,-0.0012,-0.0012,-0.0012,-0.0011,-0.0011,0.0148,0.0167,0.0173,0.0198,0.0192,0.0197,0.0161,0.0126,0.0105,0.0058,0.0061,0.0033,-0.0005,-0.0006,-0.0007,-0.0008,-0.0008,-0.0009,-0.0009,0.0175,0.0188,0.0203,0.0247,0.0275,0.0261,0.0294,0.0247,0.0175,0.0184,0.0166,0.01,0.0097,0.0174,0.0175,0.0175,0.0175,0.0175,0.0176,0.0194,0.0215,0.0255,0.0298,0.0334,0.0376,0.0371,0.036,0.0292,0.0258,0.0203,0.0119,0.0113,0.0107,0.018,0.0179,0.0179,0.0178,0.0178,0.0224,0.0234,0.0299,0.0341,0.0433,0.0471,0.0475,0.0442,0.0427,0.0382,0.0281,0.0275,0.0252,0.0243,0.024,0.0355,0.0356,0.0357,0,0.024,0.0251,0.0341,0.0419,0.0506,0.053,0.0551,0.0528,0.043,0.0422,0.04,0.0288,0.0283,0.0256,0.0248,0.0247,0,0,0,0.0261,0.0289,0.0354,0.0435,0.0533,0.0557,0.056,0.0538,0.0452,0.044,0.0373,0.0369,0.0284,0.0193,0.0142,0.0134,0.0123,0,0]}]]